Tracking 30970 objects as of 3-Jul-2025
HD Live streaming from Space Station
objects crossing your sky now

THORAD AGENA D DEB

Track THORAD AGENA D DEB now!
10-day predictions


NORAD ID: 5024
Int'l Code: 1970-025HY
Perigee: 757.3 km
Apogee: 881.0 km
Inclination: 99.8 °
Period: 101.1 minutes
Semi major axis: 7190 km
RCS: 0.0419 m2 (small)
Launch date: April 8, 1970
Source: United States (US)
Launch site: AIR FORCE WESTERN TEST RANGE (AFWTR)

Note: This is SATELLITE DEBRIS
Your satellite tracking list
Your tracking list is empty




NASA's NSSDC Master Catalog

Two Line Element Set (TLE):
1 05024U 70025HY  25183.69793921  .00001072  00000-0  47195-3 0  9999
2 05024  99.7970 104.6032 0086044  28.7249 331.8626 14.23955093822242
Source of the keplerian elements: AFSPC